GFSNGP_prec_precacc_108.txt.gz
Total_Precipitation_Accumulation
0.18 0.31 0.24 0.46 0.76 0.85 0.64 0.42 0.64 0.53 0.40 0.19 0.37 0.82 0.68 0.61 0.46 0.44 0.72 0.50 0.49 0.33 0.32 0.31 0.36 0.47 0.57 0.70 0.89 1.06 1.08 1.09 0.82 0.54 0.68 0.55 0.58 0.45 0.25 0.20 0.19 0.20 0.19 0.23
0.42 0.28 0.20 0.27 0.44 0.30 0.37 0.67 0.58 0.32 0.56 0.26 0.29 0.49 0.62 0.75 0.75 0.49 0.67 0.67 0.86 0.61 0.40 0.43 0.41 0.42 0.49 0.57 0.69 0.69 0.70 0.86 0.76 0.56 0.54 0.60 0.61 0.55 0.35 0.29 0.31 0.33 0.43 0.40
0.25 0.10 0.04 0.26 0.22 0.03 0.09 0.12 0.12 0.12 0.29 0.25 0.38 0.36 0.63 0.76 0.83 0.74 0.70 0.66 0.94 0.86 0.62 0.53 0.63 0.64 0.64 0.65 0.70 0.65 0.66 0.76 0.72 0.61 0.65 0.58 0.71 0.62 0.53 0.46 0.65 0.72 0.62 0.54
0.12 0.09 0.29 0.39 0.10 0.04 0.01 0.01 0.01 0.01 0.07 0.14 0.30 0.40 0.69 0.80 0.84 0.92 0.84 0.86 1.12 1.18 0.88 0.69 0.70 0.63 0.62 0.64 0.67 0.88 0.86 0.89 0.93 0.83 0.74 0.70 0.76 0.68 0.75 0.84 0.69 0.61 0.50 0.39
0.22 0.15 0.20 0.09 0.01 0.01 0.06 0.05 0.01 0.01 0.05 0.11 0.13 0.23 0.65 0.85 0.59 0.79 0.70 0.50 0.37 0.57 0.84 0.81 0.69 0.63 0.59 0.60 0.55 0.55 0.83 0.93 0.94 1.04 1.14 1.06 1.03 1.17 1.14 0.99 0.55 0.29 0.27 0.32
0.32 0.20 0.17 0.08 0.00 0.00 0.01 0.09 0.03 0.01 0.02 0.03 0.11 0.27 0.29 0.43 0.46 0.60 0.34 0.16 0.06 0.05 0.12 0.30 0.49 0.62 0.57 0.58 0.61 0.53 0.61 0.82 0.96 1.04 1.29 1.49 1.54 1.33 1.06 0.99 0.98 0.80 0.59 0.49
0.36 0.35 0.07 0.00 0.00 0.02 0.13 0.26 0.07 0.06 0.04 0.05 0.09 0.20 0.31 0.26 0.52 0.68 0.13 0.02 0.01 0.01 0.01 0.01 0.05 0.17 0.31 0.37 0.51 0.64 0.55 0.61 0.84 1.10 1.10 1.17 1.17 1.25 1.26 1.15 1.03 1.03 0.95 0.83
0.38 0.44 0.20 0.05 0.11 0.21 0.28 0.15 0.07 0.10 0.09 0.10 0.16 0.31 0.41 0.48 0.52 0.31 0.10 0.01 0.00 0.00 0.00 0.00 0.00 0.01 0.07 0.14 0.16 0.23 0.36 0.42 0.44 0.47 0.64 0.72 0.78 0.87 0.89 0.92 0.93 0.86 0.80 0.72
0.16 0.21 0.25 0.19 0.27 0.25 0.16 0.19 0.19 0.16 0.11 0.16 0.38 0.62 0.74 0.70 0.56 0.31 0.09 0.01 0.00 0.00 0.00 0.00 0.00 0.02 0.06 0.08 0.08 0.09 0.11 0.16 0.22 0.22 0.25 0.39 0.53 0.58 0.62 0.67 0.69 0.67 0.64 0.64
0.78 0.63 0.33 0.37 0.33 0.15 0.19 0.27 0.23 0.15 0.15 0.20 0.28 0.37 0.41 0.39 0.35 0.22 0.06 0.01 0.02 0.02 0.02 0.05 0.06 0.06 0.08 0.07 0.07 0.09 0.09 0.08 0.08 0.10 0.15 0.15 0.19 0.26 0.32 0.41 0.49 0.62 0.71 0.72
1.09 0.77 0.55 0.46 0.93 0.48 0.22 0.15 0.11 0.05 0.03 0.05 0.04 0.05 0.06 0.04 0.03 0.03 0.04 0.04 0.04 0.06 0.08 0.06 0.05 0.08 0.11 0.13 0.11 0.11 0.10 0.10 0.10 0.10 0.11 0.09 0.15 0.24 0.27 0.43 0.52 0.57 0.72 0.87
1.01 1.18 1.01 0.90 0.79 0.69 0.49 0.31 0.16 0.07 0.04 0.03 0.01 0.01 0.03 0.05 0.07 0.05 0.04 0.05 0.06 0.06 0.07 0.09 0.09 0.12 0.13 0.12 0.11 0.13 0.15 0.16 0.23 0.20 0.19 0.18 0.19 0.27 0.38 0.48 0.53 0.61 0.74 0.83
0.61 0.75 1.05 0.94 0.57 0.30 0.22 0.15 0.06 0.04 0.03 0.03 0.04 0.02 0.05 0.11 0.09 0.06 0.05 0.05 0.06 0.07 0.09 0.11 0.16 0.20 0.26 0.30 0.29 0.31 0.33 0.31 0.32 0.36 0.36 0.34 0.36 0.38 0.49 0.68 0.73 0.86 0.98 1.05
0.13 0.23 0.23 0.16 0.12 0.03 0.02 0.02 0.02 0.01 0.01 0.02 0.08 0.19 0.25 0.23 0.22 0.21 0.20 0.16 0.11 0.10 0.14 0.18 0.25 0.40 0.56 0.64 0.66 0.71 0.72 0.77 0.72 0.75 0.80 0.85 0.92 1.03 1.13 1.24 1.35 1.56 1.55 1.37
0.05 0.06 0.05 0.04 0.02 0.02 0.02 0.02 0.02 0.02 0.05 0.12 0.13 0.12 0.18 0.26 0.28 0.27 0.23 0.20 0.19 0.21 0.26 0.30 0.33 0.44 0.43 0.47 0.55 0.66 0.78 0.99 1.08 1.12 1.20 1.23 1.21 1.22 1.20 1.14 1.09 1.09 1.01 0.91
0.02 0.04 0.08 0.10 0.11 0.11 0.10 0.11 0.16 0.28 0.32 0.22 0.16 0.17 0.17 0.17 0.21 0.23 0.23 0.20 0.17 0.22 0.23 0.22 0.30 0.49 0.47 0.50 0.62 0.76 0.92 1.07 1.08 1.11 1.11 1.05 0.96 0.84 0.76 0.72 0.66 0.61 0.58 0.58
0.07 0.09 0.11 0.14 0.15 0.20 0.27 0.36 0.45 0.44 0.35 0.34 0.38 0.37 0.34 0.35 0.37 0.44 0.49 0.46 0.43 0.50 0.57 0.61 0.84 0.84 0.84 0.85 0.80 0.85 0.81 0.80 0.74 0.67 0.65 0.63 0.60 0.57 0.54 0.50 0.51 0.46 0.47 0.44
0.15 0.15 0.16 0.20 0.30 0.42 0.43 0.34 0.27 0.29 0.35 0.38 0.38 0.39 0.43 0.46 0.53 0.61 0.70 0.66 0.64 0.74 0.88 0.96 0.91 0.83 0.76 0.69 0.57 0.51 0.45 0.41 0.37 0.36 0.36 0.35 0.32 0.29 0.30 0.27 0.26 0.25 0.24 0.20
0.17 0.24 0.32 0.40 0.41 0.29 0.24 0.27 0.32 0.37 0.46 0.50 0.53 0.68 0.75 0.82 0.85 0.95 0.96 0.81 0.80 0.74 0.92 0.70 0.51 0.35 0.32 0.29 0.21 0.19 0.21 0.22 0.23 0.23 0.22 0.21 0.19 0.19 0.21 0.24 0.27 0.28 0.26 0.27
0.40 0.37 0.28 0.27 0.29 0.32 0.42 0.57 0.58 0.64 0.82 0.74 0.74 0.77 0.80 0.94 0.90 0.82 0.67 0.60 0.59 0.58 0.48 0.38 0.26 0.20 0.20 0.19 0.15 0.14 0.15 0.16 0.15 0.16 0.16 0.18 0.22 0.26 0.27 0.26 0.27 0.28 0.30 0.31
0.64 0.61 0.64 0.66 0.74 0.79 0.78 0.83 0.66 0.74 0.93 0.79 0.62 0.71 0.71 0.79 0.69 0.58 0.43 0.45 0.56 0.41 0.31 0.25 0.20 0.17 0.13 0.12 0.10 0.11 0.14 0.17 0.21 0.24 0.27 0.27 0.25 0.21 0.22 0.26 0.31 0.31 0.29 0.25
0.71 0.64 0.71 0.73 0.62 0.75 0.81 0.73 0.55 0.57 0.58 0.55 0.54 0.53 0.43 0.47 0.41 0.34 0.31 0.27 0.31 0.23 0.16 0.14 0.11 0.07 0.07 0.08 0.09 0.10 0.11 0.15 0.17 0.18 0.18 0.20 0.25 0.29 0.31 0.28 0.27 0.23 0.21 0.19
0.65 0.59 0.57 0.54 0.47 0.51 0.52 0.46 0.47 0.38 0.39 0.41 0.37 0.33 0.26 0.26 0.23 0.17 0.22 0.22 0.15 0.13 0.09 0.08 0.07 0.05 0.07 0.10 0.11 0.11 0.13 0.16 0.18 0.23 0.27 0.28 0.26 0.25 0.21 0.19 0.17 0.16 0.15 0.14
0.53 0.49 0.47 0.44 0.32 0.22 0.29 0.40 0.28 0.24 0.19 0.17 0.16 0.14 0.10 0.09 0.14 0.12 0.10 0.09 0.07 0.06 0.07 0.06 0.06 0.06 0.07 0.13 0.15 0.17 0.20 0.23 0.23 0.20 0.18 0.17 0.17 0.15 0.14 0.12 0.11 0.10 0.11 0.10
0.42 0.41 0.37 0.29 0.24 0.30 0.23 0.18 0.10 0.09 0.08 0.09 0.10 0.08 0.05 0.06 0.12 0.11 0.06 0.06 0.06 0.08 0.11 0.07 0.06 0.06 0.14 0.18 0.18 0.17 0.18 0.18 0.14 0.15 0.17 0.17 0.15 0.15 0.14 0.12 0.11 0.12 0.11 0.10
0.32 0.31 0.29 0.24 0.23 0.19 0.16 0.11 0.12 0.13 0.09 0.09 0.13 0.16 0.15 0.09 0.07 0.08 0.07 0.07 0.06 0.08 0.13 0.15 0.13 0.13 0.16 0.17 0.17 0.15 0.17 0.16 0.14 0.17 0.16 0.16 0.15 0.15 0.13 0.12 0.12 0.12 0.13 0.14
0.27 0.22 0.17 0.15 0.16 0.15 0.14 0.15 0.15 0.16 0.15 0.15 0.16 0.17 0.15 0.14 0.12 0.09 0.09 0.10 0.12 0.13 0.15 0.18 0.17 0.19 0.19 0.19 0.19 0.18 0.18 0.16 0.15 0.14 0.15 0.15 0.14 0.14 0.13 0.13 0.12 0.12 0.12 0.13

GFSNGP_prec_precacc_114.txt.gz
Total_Precipitation_Accumulation
0.40 0.51 0.37 0.59 1.01 1.11 0.85 0.68 0.73 0.83 0.58 0.43 0.57 0.98 0.84 0.67 0.47 0.45 0.72 0.51 0.49 0.34 0.32 0.31 0.36 0.47 0.57 0.70 0.90 1.07 1.09 1.09 0.83 0.56 0.71 0.59 0.64 0.54 0.32 0.28 0.26 0.28 0.28 0.31
0.62 0.50 0.30 0.45 0.74 0.59 0.60 0.92 0.83 0.49 0.68 0.47 0.44 0.61 0.70 0.81 0.77 0.49 0.67 0.67 0.87 0.61 0.40 0.43 0.41 0.42 0.49 0.57 0.69 0.70 0.72 0.87 0.77 0.60 0.58 0.62 0.64 0.66 0.54 0.47 0.52 0.52 0.56 0.55
0.36 0.18 0.11 0.39 0.70 0.35 0.24 0.23 0.21 0.15 0.36 0.37 0.47 0.42 0.70 0.82 0.85 0.74 0.71 0.67 0.94 0.87 0.63 0.54 0.64 0.64 0.64 0.65 0.70 0.65 0.66 0.77 0.72 0.63 0.71 0.66 0.81 0.87 0.87 0.84 1.07 1.12 1.04 0.91
0.23 0.15 0.38 0.56 0.24 0.10 0.03 0.04 0.04 0.04 0.12 0.18 0.32 0.43 0.74 0.85 0.87 0.92 0.84 0.86 1.12 1.19 0.89 0.69 0.71 0.63 0.62 0.64 0.67 0.88 0.86 0.89 0.94 0.83 0.74 0.74 0.82 0.83 1.21 1.60 1.35 1.09 0.95 0.83
0.40 0.19 0.29 0.18 0.07 0.04 0.08 0.09 0.06 0.05 0.09 0.15 0.16 0.24 0.67 0.89 0.61 0.80 0.70 0.50 0.38 0.58 0.84 0.81 0.69 0.63 0.59 0.60 0.55 0.55 0.83 0.93 0.95 1.05 1.15 1.10 1.09 1.27 1.30 1.22 1.05 0.96 0.84 0.79
0.49 0.25 0.22 0.11 0.01 0.00 0.01 0.11 0.06 0.04 0.04 0.05 0.12 0.29 0.31 0.46 0.46 0.60 0.34 0.16 0.06 0.05 0.12 0.30 0.49 0.62 0.57 0.58 0.61 0.54 0.62 0.83 0.97 1.05 1.32 1.53 1.66 1.50 1.23 1.15 1.21 1.16 1.10 1.04
0.48 0.36 0.09 0.01 0.02 0.02 0.14 0.29 0.09 0.08 0.05 0.05 0.09 0.21 0.33 0.27 0.52 0.68 0.13 0.02 0.01 0.01 0.01 0.02 0.05 0.17 0.31 0.37 0.51 0.64 0.55 0.61 0.84 1.10 1.12 1.23 1.26 1.32 1.36 1.33 1.23 1.25 1.32 1.29
0.43 0.45 0.21 0.06 0.13 0.23 0.31 0.17 0.09 0.11 0.09 0.10 0.16 0.31 0.41 0.48 0.52 0.31 0.10 0.01 0.00 0.00 0.00 0.00 0.00 0.01 0.07 0.15 0.16 0.23 0.36 0.42 0.44 0.47 0.64 0.74 0.84 0.97 0.98 1.02 1.08 1.06 1.03 1.07
0.18 0.23 0.29 0.22 0.30 0.28 0.17 0.21 0.22 0.16 0.11 0.16 0.38 0.62 0.74 0.70 0.56 0.31 0.09 0.01 0.00 0.00 0.00 0.00 0.01 0.02 0.07 0.10 0.09 0.09 0.11 0.16 0.22 0.22 0.25 0.39 0.54 0.61 0.66 0.74 0.77 0.77 0.80 0.86
0.79 0.66 0.35 0.39 0.34 0.16 0.19 0.27 0.24 0.15 0.15 0.20 0.28 0.37 0.41 0.39 0.35 0.22 0.06 0.01 0.02 0.02 0.02 0.05 0.06 0.06 0.09 0.08 0.08 0.09 0.09 0.08 0.08 0.10 0.15 0.15 0.19 0.26 0.33 0.42 0.50 0.64 0.74 0.78
1.10 0.79 0.57 0.47 0.94 0.48 0.22 0.15 0.11 0.05 0.03 0.05 0.04 0.05 0.06 0.04 0.03 0.03 0.04 0.04 0.04 0.06 0.08 0.06 0.05 0.08 0.12 0.13 0.11 0.11 0.10 0.10 0.10 0.10 0.11 0.09 0.15 0.25 0.28 0.47 0.54 0.59 0.74 0.89
1.02 1.18 1.02 0.90 0.79 0.69 0.49 0.31 0.16 0.07 0.04 0.03 0.01 0.01 0.03 0.05 0.07 0.05 0.04 0.05 0.06 0.06 0.07 0.09 0.09 0.12 0.13 0.12 0.12 0.13 0.15 0.16 0.23 0.20 0.19 0.18 0.19 0.27 0.39 0.49 0.54 0.62 0.76 0.84
0.61 0.76 1.05 0.94 0.57 0.30 0.22 0.15 0.06 0.04 0.03 0.03 0.04 0.02 0.05 0.11 0.09 0.06 0.05 0.05 0.06 0.07 0.09 0.11 0.16 0.20 0.26 0.30 0.29 0.31 0.33 0.31 0.32 0.36 0.36 0.34 0.36 0.38 0.49 0.68 0.73 0.87 0.98 1.05
0.13 0.23 0.24 0.16 0.12 0.03 0.02 0.02 0.02 0.01 0.01 0.02 0.08 0.19 0.25 0.23 0.22 0.21 0.20 0.16 0.11 0.10 0.14 0.18 0.25 0.40 0.56 0.64 0.66 0.71 0.72 0.77 0.73 0.76 0.81 0.86 0.92 1.03 1.13 1.24 1.35 1.56 1.55 1.38
0.05 0.06 0.05 0.04 0.02 0.02 0.02 0.02 0.02 0.02 0.05 0.12 0.13 0.12 0.18 0.26 0.28 0.27 0.23 0.20 0.19 0.21 0.26 0.30 0.33 0.44 0.43 0.47 0.55 0.66 0.78 0.99 1.08 1.12 1.20 1.24 1.21 1.22 1.20 1.14 1.09 1.09 1.01 0.91
0.02 0.04 0.08 0.10 0.11 0.11 0.10 0.11 0.16 0.28 0.32 0.22 0.16 0.17 0.17 0.17 0.21 0.23 0.23 0.20 0.17 0.22 0.23 0.22 0.30 0.49 0.47 0.50 0.62 0.76 0.92 1.07 1.08 1.11 1.11 1.05 0.96 0.84 0.76 0.72 0.66 0.61 0.58 0.58
0.07 0.09 0.11 0.14 0.15 0.20 0.27 0.36 0.45 0.44 0.35 0.34 0.38 0.38 0.34 0.35 0.37 0.44 0.49 0.46 0.43 0.50 0.57 0.61 0.84 0.84 0.84 0.85 0.80 0.85 0.81 0.80 0.74 0.67 0.65 0.63 0.60 0.57 0.54 0.50 0.51 0.46 0.47 0.44
0.15 0.15 0.16 0.20 0.30 0.42 0.43 0.34 0.27 0.29 0.35 0.38 0.38 0.39 0.43 0.46 0.53 0.61 0.70 0.66 0.64 0.74 0.88 0.96 0.91 0.83 0.76 0.69 0.57 0.51 0.45 0.41 0.37 0.36 0.36 0.35 0.32 0.29 0.30 0.27 0.26 0.25 0.24 0.20
0.17 0.24 0.32 0.40 0.41 0.29 0.24 0.27 0.32 0.37 0.46 0.50 0.53 0.68 0.75 0.82 0.85 0.95 0.96 0.81 0.80 0.74 0.92 0.70 0.51 0.35 0.32 0.29 0.21 0.19 0.21 0.22 0.23 0.23 0.22 0.21 0.19 0.19 0.22 0.25 0.27 0.28 0.26 0.27
0.40 0.37 0.28 0.27 0.29 0.32 0.42 0.57 0.58 0.64 0.82 0.74 0.74 0.77 0.80 0.94 0.90 0.82 0.67 0.60 0.59 0.58 0.48 0.38 0.26 0.20 0.20 0.19 0.15 0.14 0.15 0.16 0.15 0.16 0.16 0.18 0.22 0.26 0.28 0.27 0.27 0.29 0.30 0.31
0.64 0.61 0.64 0.66 0.74 0.79 0.78 0.83 0.66 0.74 0.93 0.79 0.62 0.71 0.71 0.79 0.69 0.58 0.43 0.45 0.56 0.41 0.31 0.25 0.20 0.17 0.13 0.12 0.10 0.11 0.14 0.17 0.21 0.24 0.27 0.27 0.25 0.22 0.23 0.27 0.32 0.32 0.29 0.25
0.71 0.64 0.71 0.73 0.62 0.75 0.81 0.73 0.55 0.57 0.58 0.55 0.54 0.53 0.43 0.47 0.41 0.34 0.31 0.27 0.31 0.23 0.16 0.14 0.11 0.07 0.07 0.08 0.09 0.10 0.11 0.15 0.17 0.18 0.18 0.20 0.25 0.30 0.31 0.29 0.28 0.24 0.22 0.20
0.65 0.59 0.57 0.54 0.47 0.51 0.52 0.46 0.47 0.38 0.39 0.41 0.37 0.33 0.26 0.26 0.23 0.17 0.22 0.22 0.15 0.13 0.09 0.08 0.07 0.05 0.07 0.10 0.11 0.11 0.13 0.16 0.18 0.23 0.27 0.28 0.26 0.25 0.22 0.19 0.17 0.16 0.16 0.15
0.53 0.49 0.47 0.44 0.32 0.22 0.29 0.40 0.28 0.24 0.19 0.17 0.16 0.14 0.10 0.09 0.14 0.12 0.10 0.09 0.07 0.06 0.07 0.06 0.06 0.06 0.07 0.13 0.15 0.17 0.20 0.23 0.23 0.20 0.18 0.17 0.17 0.16 0.14 0.12 0.11 0.10 0.11 0.10
0.42 0.41 0.37 0.29 0.24 0.30 0.23 0.18 0.10 0.09 0.08 0.09 0.10 0.08 0.05 0.06 0.12 0.11 0.07 0.07 0.06 0.09 0.11 0.07 0.06 0.06 0.14 0.18 0.18 0.17 0.18 0.18 0.14 0.15 0.17 0.17 0.15 0.15 0.14 0.13 0.12 0.12 0.11 0.10
0.32 0.31 0.29 0.24 0.23 0.19 0.16 0.11 0.12 0.13 0.09 0.09 0.13 0.16 0.15 0.09 0.07 0.08 0.08 0.08 0.07 0.09 0.13 0.15 0.13 0.13 0.16 0.17 0.17 0.15 0.17 0.16 0.14 0.17 0.16 0.16 0.15 0.15 0.13 0.13 0.12 0.12 0.13 0.14
0.27 0.22 0.17 0.15 0.16 0.15 0.14 0.15 0.15 0.16 0.15 0.15 0.16 0.17 0.15 0.14 0.12 0.10 0.09 0.11 0.12 0.13 0.15 0.18 0.18 0.19 0.19 0.19 0.20 0.19 0.18 0.16 0.15 0.14 0.15 0.15 0.14 0.14 0.13 0.13 0.13 0.13 0.13 0.14

GFSNGP_prec_precacc_117.txt.gz
Total_Precipitation_Accumulation
0.46 0.57 0.42 0.64 1.11 1.15 0.86 0.69 0.73 0.86 0.60 0.47 0.64 1.10 0.98 0.81 0.62 0.54 0.80 0.53 0.51 0.36 0.34 0.33 0.36 0.47 0.57 0.70 0.90 1.07 1.09 1.09 0.83 0.56 0.72 0.59 0.64 0.55 0.32 0.29 0.29 0.32 0.31 0.35
0.65 0.57 0.34 0.52 0.88 0.63 0.61 0.95 0.86 0.53 0.71 0.52 0.52 0.71 0.82 0.90 0.80 0.51 0.68 0.68 0.87 0.61 0.41 0.43 0.41 0.42 0.49 0.57 0.69 0.70 0.72 0.87 0.77 0.60 0.58 0.62 0.64 0.66 0.54 0.47 0.52 0.53 0.57 0.56
0.37 0.21 0.13 0.43 0.79 0.46 0.27 0.25 0.24 0.16 0.38 0.41 0.50 0.45 0.73 0.85 0.85 0.74 0.71 0.67 0.95 0.88 0.65 0.55 0.64 0.64 0.65 0.65 0.70 0.65 0.66 0.77 0.72 0.63 0.71 0.66 0.81 0.87 0.87 0.84 1.07 1.12 1.05 0.94
0.28 0.21 0.45 0.60 0.27 0.14 0.04 0.06 0.06 0.05 0.14 0.19 0.33 0.45 0.76 0.86 0.88 0.93 0.84 0.86 1.13 1.20 0.90 0.70 0.71 0.63 0.62 0.64 0.67 0.88 0.86 0.89 0.94 0.83 0.74 0.74 0.82 0.83 1.22 1.60 1.35 1.09 0.97 0.88
0.48 0.24 0.33 0.21 0.08 0.05 0.09 0.10 0.07 0.07 0.11 0.16 0.18 0.25 0.67 0.90 0.61 0.80 0.70 0.51 0.39 0.59 0.85 0.82 0.69 0.63 0.59 0.60 0.55 0.55 0.83 0.93 0.95 1.05 1.15 1.10 1.09 1.27 1.30 1.22 1.06 0.96 0.86 0.83
0.57 0.28 0.24 0.13 0.04 0.01 0.02 0.13 0.07 0.05 0.05 0.06 0.13 0.29 0.32 0.47 0.46 0.60 0.34 0.16 0.07 0.05 0.12 0.30 0.49 0.62 0.57 0.58 0.61 0.54 0.62 0.83 0.97 1.06 1.32 1.53 1.66 1.50 1.23 1.15 1.21 1.17 1.10 1.05
0.57 0.39 0.10 0.02 0.04 0.03 0.15 0.30 0.10 0.08 0.05 0.05 0.10 0.21 0.34 0.27 0.52 0.68 0.13 0.02 0.01 0.01 0.01 0.02 0.05 0.17 0.31 0.38 0.51 0.64 0.55 0.61 0.84 1.10 1.12 1.23 1.26 1.32 1.36 1.33 1.23 1.25 1.32 1.29
0.48 0.51 0.23 0.08 0.14 0.24 0.32 0.18 0.09 0.11 0.09 0.10 0.16 0.31 0.42 0.48 0.52 0.31 0.10 0.01 0.00 0.00 0.00 0.00 0.00 0.01 0.08 0.15 0.16 0.23 0.36 0.42 0.44 0.47 0.64 0.74 0.84 0.97 0.98 1.02 1.08 1.06 1.03 1.07
0.22 0.26 0.32 0.25 0.31 0.29 0.17 0.21 0.22 0.16 0.11 0.16 0.38 0.62 0.74 0.70 0.56 0.31 0.09 0.01 0.00 0.00 0.00 0.00 0.01 0.02 0.07 0.10 0.09 0.09 0.11 0.16 0.22 0.22 0.25 0.39 0.54 0.61 0.66 0.74 0.77 0.77 0.80 0.86
0.81 0.68 0.36 0.40 0.35 0.17 0.20 0.27 0.24 0.15 0.15 0.20 0.28 0.37 0.41 0.39 0.35 0.22 0.06 0.01 0.02 0.02 0.02 0.05 0.06 0.06 0.09 0.08 0.08 0.09 0.09 0.08 0.08 0.10 0.15 0.15 0.19 0.26 0.33 0.42 0.51 0.64 0.75 0.78
1.12 0.81 0.57 0.47 0.94 0.49 0.22 0.15 0.11 0.05 0.03 0.05 0.04 0.05 0.06 0.04 0.03 0.03 0.04 0.04 0.04 0.06 0.08 0.06 0.05 0.08 0.12 0.13 0.11 0.11 0.10 0.10 0.10 0.10 0.11 0.09 0.15 0.26 0.28 0.48 0.56 0.60 0.75 0.89
1.02 1.18 1.02 0.91 0.80 0.69 0.49 0.31 0.16 0.07 0.04 0.03 0.01 0.01 0.03 0.05 0.07 0.05 0.04 0.05 0.06 0.06 0.07 0.09 0.09 0.12 0.13 0.12 0.12 0.13 0.15 0.16 0.23 0.20 0.19 0.18 0.19 0.27 0.39 0.50 0.54 0.63 0.76 0.84
0.61 0.76 1.05 0.94 0.57 0.30 0.22 0.15 0.06 0.04 0.03 0.03 0.04 0.02 0.05 0.11 0.09 0.06 0.05 0.05 0.06 0.07 0.09 0.11 0.16 0.20 0.26 0.30 0.29 0.31 0.33 0.31 0.32 0.36 0.36 0.34 0.36 0.38 0.49 0.68 0.73 0.87 0.98 1.06
0.13 0.23 0.24 0.16 0.12 0.03 0.02 0.02 0.02 0.01 0.01 0.02 0.08 0.19 0.25 0.23 0.22 0.21 0.20 0.16 0.11 0.10 0.14 0.18 0.25 0.40 0.56 0.64 0.66 0.71 0.72 0.77 0.73 0.76 0.81 0.86 0.92 1.03 1.13 1.24 1.35 1.56 1.55 1.38
0.05 0.06 0.05 0.04 0.02 0.02 0.02 0.02 0.02 0.02 0.05 0.12 0.13 0.12 0.18 0.26 0.28 0.27 0.23 0.20 0.19 0.21 0.26 0.30 0.33 0.44 0.43 0.47 0.55 0.66 0.78 0.99 1.08 1.12 1.20 1.24 1.21 1.22 1.20 1.14 1.09 1.09 1.01 0.91
0.02 0.04 0.08 0.10 0.11 0.11 0.10 0.11 0.16 0.28 0.32 0.22 0.16 0.17 0.17 0.17 0.21 0.23 0.23 0.20 0.17 0.22 0.23 0.22 0.30 0.49 0.47 0.50 0.62 0.76 0.92 1.07 1.08 1.11 1.11 1.05 0.96 0.84 0.76 0.72 0.66 0.61 0.58 0.58
0.07 0.09 0.11 0.14 0.15 0.20 0.27 0.36 0.45 0.44 0.35 0.34 0.38 0.38 0.34 0.35 0.37 0.44 0.49 0.46 0.43 0.50 0.57 0.61 0.84 0.84 0.84 0.85 0.80 0.85 0.81 0.80 0.74 0.67 0.65 0.63 0.60 0.57 0.54 0.50 0.51 0.46 0.47 0.44
0.15 0.15 0.16 0.20 0.30 0.42 0.43 0.34 0.27 0.29 0.35 0.38 0.38 0.39 0.43 0.46 0.53 0.61 0.70 0.66 0.64 0.74 0.88 0.96 0.91 0.83 0.76 0.69 0.57 0.51 0.45 0.41 0.37 0.36 0.36 0.35 0.32 0.30 0.30 0.27 0.26 0.25 0.24 0.20
0.17 0.24 0.32 0.40 0.41 0.29 0.24 0.27 0.32 0.37 0.46 0.50 0.53 0.68 0.75 0.82 0.85 0.95 0.96 0.81 0.80 0.74 0.92 0.70 0.51 0.35 0.32 0.29 0.21 0.19 0.21 0.22 0.23 0.23 0.22 0.21 0.19 0.19 0.22 0.25 0.27 0.28 0.26 0.27
0.40 0.37 0.28 0.27 0.29 0.32 0.42 0.57 0.58 0.64 0.82 0.74 0.74 0.77 0.80 0.94 0.90 0.82 0.67 0.60 0.59 0.58 0.48 0.38 0.26 0.20 0.20 0.19 0.15 0.14 0.15 0.16 0.15 0.16 0.16 0.18 0.22 0.26 0.28 0.28 0.28 0.29 0.31 0.31
0.64 0.61 0.64 0.66 0.74 0.79 0.78 0.83 0.66 0.74 0.93 0.79 0.62 0.71 0.71 0.79 0.69 0.58 0.43 0.45 0.56 0.41 0.31 0.25 0.20 0.17 0.13 0.12 0.10 0.11 0.14 0.17 0.21 0.24 0.27 0.28 0.25 0.22 0.23 0.27 0.32 0.32 0.29 0.25
0.71 0.64 0.71 0.73 0.62 0.75 0.81 0.73 0.55 0.57 0.58 0.55 0.54 0.53 0.43 0.47 0.41 0.34 0.31 0.27 0.31 0.23 0.16 0.14 0.11 0.07 0.07 0.08 0.09 0.10 0.11 0.15 0.17 0.18 0.18 0.20 0.25 0.30 0.32 0.29 0.28 0.24 0.22 0.20
0.65 0.59 0.57 0.54 0.47 0.51 0.52 0.46 0.47 0.38 0.39 0.41 0.37 0.33 0.26 0.26 0.23 0.17 0.22 0.22 0.15 0.13 0.09 0.08 0.07 0.05 0.07 0.10 0.11 0.11 0.13 0.16 0.18 0.23 0.27 0.28 0.26 0.25 0.22 0.20 0.18 0.16 0.16 0.15
0.53 0.49 0.47 0.44 0.32 0.22 0.29 0.40 0.28 0.24 0.19 0.17 0.16 0.14 0.10 0.09 0.14 0.12 0.10 0.09 0.07 0.07 0.07 0.06 0.06 0.06 0.07 0.13 0.15 0.17 0.20 0.23 0.23 0.20 0.18 0.17 0.17 0.16 0.15 0.13 0.11 0.10 0.12 0.10
0.42 0.41 0.37 0.29 0.24 0.30 0.23 0.18 0.10 0.09 0.08 0.09 0.10 0.08 0.05 0.06 0.12 0.11 0.07 0.07 0.06 0.09 0.12 0.07 0.07 0.06 0.14 0.19 0.18 0.17 0.18 0.18 0.14 0.15 0.17 0.17 0.15 0.15 0.14 0.13 0.12 0.12 0.11 0.11
0.32 0.31 0.29 0.24 0.23 0.19 0.16 0.11 0.12 0.13 0.09 0.09 0.13 0.16 0.15 0.09 0.07 0.08 0.08 0.08 0.07 0.09 0.13 0.15 0.14 0.13 0.16 0.17 0.17 0.16 0.17 0.16 0.15 0.18 0.17 0.16 0.15 0.15 0.13 0.13 0.12 0.12 0.13 0.14
0.27 0.22 0.17 0.15 0.16 0.15 0.14 0.15 0.15 0.16 0.15 0.15 0.16 0.17 0.15 0.14 0.12 0.10 0.09 0.11 0.12 0.13 0.15 0.18 0.18 0.19 0.20 0.19 0.20 0.19 0.18 0.17 0.16 0.15 0.16 0.16 0.15 0.14 0.13 0.13 0.13 0.13 0.13 0.14

GFSNGP_prec_precacc_120.txt.gz
Total_Precipitation_Accumulation
0.48 0.62 0.44 0.66 1.14 1.17 0.88 0.71 0.75 0.87 0.61 0.49 0.67 1.13 1.03 0.91 0.72 0.62 0.88 0.62 0.63 0.50 0.55 0.50 0.44 0.49 0.58 0.71 0.90 1.07 1.09 1.09 0.83 0.56 0.72 0.59 0.64 0.55 0.32 0.29 0.29 0.32 0.33 0.38
0.65 0.60 0.35 0.53 0.92 0.64 0.62 0.96 0.87 0.53 0.73 0.55 0.54 0.75 0.89 0.96 0.85 0.53 0.69 0.69 0.88 0.62 0.44 0.49 0.45 0.44 0.50 0.57 0.69 0.70 0.72 0.87 0.77 0.60 0.58 0.62 0.64 0.66 0.54 0.47 0.53 0.53 0.58 0.58
0.38 0.24 0.14 0.45 0.82 0.50 0.30 0.27 0.25 0.17 0.40 0.42 0.52 0.47 0.77 0.87 0.86 0.75 0.71 0.67 0.96 0.89 0.66 0.56 0.65 0.64 0.65 0.65 0.70 0.65 0.66 0.77 0.72 0.63 0.71 0.66 0.81 0.87 0.87 0.84 1.07 1.12 1.05 0.94
0.29 0.27 0.53 0.63 0.28 0.15 0.04 0.06 0.07 0.06 0.14 0.20 0.34 0.47 0.78 0.87 0.88 0.93 0.85 0.87 1.13 1.20 0.91 0.71 0.71 0.63 0.62 0.64 0.67 0.88 0.86 0.89 0.94 0.83 0.74 0.74 0.82 0.83 1.22 1.61 1.36 1.09 0.97 0.88
0.50 0.29 0.39 0.25 0.09 0.05 0.09 0.11 0.08 0.08 0.12 0.17 0.18 0.26 0.68 0.90 0.62 0.80 0.70 0.51 0.39 0.59 0.85 0.82 0.70 0.64 0.59 0.60 0.55 0.55 0.83 0.93 0.95 1.05 1.15 1.10 1.09 1.27 1.30 1.22 1.06 0.96 0.86 0.83
0.59 0.32 0.28 0.15 0.06 0.03 0.03 0.13 0.08 0.05 0.05 0.06 0.14 0.30 0.32 0.47 0.46 0.60 0.34 0.16 0.07 0.05 0.12 0.30 0.49 0.62 0.57 0.58 0.61 0.54 0.62 0.83 0.97 1.06 1.32 1.54 1.66 1.50 1.23 1.16 1.22 1.17 1.11 1.05
0.57 0.43 0.13 0.04 0.08 0.08 0.18 0.31 0.10 0.08 0.05 0.05 0.10 0.22 0.35 0.28 0.52 0.68 0.13 0.02 0.01 0.01 0.01 0.02 0.05 0.17 0.31 0.38 0.52 0.64 0.55 0.61 0.84 1.10 1.12 1.23 1.27 1.32 1.36 1.33 1.23 1.25 1.32 1.30
0.49 0.53 0.26 0.11 0.22 0.29 0.33 0.18 0.09 0.11 0.09 0.10 0.16 0.31 0.42 0.48 0.52 0.31 0.10 0.01 0.00 0.00 0.00 0.00 0.00 0.01 0.08 0.16 0.16 0.23 0.36 0.42 0.44 0.47 0.65 0.74 0.85 0.97 0.98 1.02 1.08 1.07 1.04 1.07
0.24 0.29 0.35 0.31 0.39 0.32 0.18 0.22 0.23 0.16 0.11 0.16 0.38 0.62 0.74 0.70 0.57 0.31 0.09 0.01 0.00 0.00 0.00 0.00 0.01 0.02 0.07 0.10 0.09 0.09 0.11 0.16 0.22 0.22 0.25 0.39 0.54 0.61 0.67 0.74 0.78 0.77 0.80 0.86
0.85 0.73 0.41 0.46 0.39 0.18 0.21 0.28 0.24 0.15 0.15 0.20 0.28 0.38 0.41 0.40 0.35 0.22 0.06 0.01 0.02 0.02 0.02 0.05 0.06 0.06 0.09 0.08 0.08 0.09 0.09 0.08 0.08 0.10 0.15 0.15 0.19 0.26 0.33 0.42 0.51 0.65 0.75 0.78
1.15 0.87 0.62 0.52 0.97 0.49 0.22 0.15 0.11 0.05 0.03 0.05 0.04 0.05 0.06 0.04 0.03 0.03 0.04 0.04 0.04 0.06 0.08 0.06 0.05 0.08 0.12 0.13 0.11 0.11 0.10 0.10 0.10 0.10 0.11 0.09 0.15 0.26 0.29 0.49 0.56 0.60 0.76 0.90
1.04 1.20 1.05 0.94 0.83 0.70 0.49 0.31 0.16 0.07 0.04 0.03 0.01 0.01 0.03 0.05 0.07 0.05 0.04 0.05 0.06 0.06 0.07 0.09 0.09 0.12 0.13 0.12 0.12 0.13 0.15 0.16 0.23 0.20 0.19 0.18 0.19 0.27 0.39 0.50 0.54 0.63 0.76 0.85
0.62 0.76 1.06 0.96 0.58 0.30 0.22 0.15 0.06 0.04 0.03 0.03 0.04 0.02 0.05 0.11 0.09 0.06 0.05 0.05 0.06 0.07 0.09 0.11 0.16 0.20 0.26 0.30 0.29 0.31 0.33 0.31 0.32 0.36 0.36 0.34 0.36 0.38 0.49 0.68 0.73 0.87 0.98 1.06
0.13 0.23 0.25 0.16 0.12 0.03 0.02 0.02 0.02 0.01 0.01 0.02 0.08 0.19 0.25 0.23 0.22 0.21 0.20 0.16 0.11 0.10 0.14 0.18 0.25 0.40 0.56 0.64 0.66 0.71 0.72 0.77 0.73 0.76 0.81 0.86 0.92 1.03 1.13 1.24 1.35 1.56 1.55 1.38
0.05 0.06 0.05 0.04 0.02 0.02 0.02 0.02 0.02 0.02 0.05 0.12 0.13 0.12 0.18 0.26 0.28 0.27 0.23 0.20 0.19 0.21 0.26 0.30 0.33 0.44 0.43 0.47 0.55 0.66 0.78 0.99 1.09 1.12 1.21 1.24 1.22 1.22 1.20 1.14 1.09 1.09 1.01 0.91
0.02 0.04 0.08 0.10 0.11 0.11 0.10 0.11 0.16 0.28 0.32 0.22 0.16 0.17 0.17 0.17 0.21 0.23 0.23 0.20 0.17 0.22 0.23 0.22 0.30 0.49 0.47 0.50 0.62 0.76 0.92 1.07 1.08 1.11 1.11 1.05 0.96 0.84 0.76 0.72 0.66 0.61 0.58 0.58
0.07 0.09 0.11 0.14 0.15 0.20 0.27 0.36 0.45 0.44 0.35 0.34 0.38 0.38 0.34 0.35 0.37 0.44 0.49 0.46 0.43 0.50 0.57 0.61 0.84 0.84 0.84 0.85 0.80 0.85 0.81 0.80 0.75 0.68 0.65 0.64 0.61 0.57 0.55 0.51 0.51 0.47 0.47 0.44
0.15 0.15 0.16 0.20 0.30 0.42 0.43 0.34 0.27 0.29 0.35 0.38 0.38 0.39 0.43 0.46 0.53 0.61 0.70 0.66 0.64 0.74 0.88 0.96 0.91 0.83 0.76 0.69 0.57 0.51 0.45 0.41 0.37 0.36 0.36 0.35 0.32 0.30 0.30 0.28 0.26 0.26 0.25 0.20
0.17 0.24 0.32 0.40 0.41 0.29 0.24 0.27 0.32 0.37 0.46 0.50 0.53 0.68 0.75 0.82 0.85 0.95 0.96 0.81 0.80 0.74 0.92 0.70 0.51 0.35 0.32 0.29 0.21 0.19 0.21 0.23 0.23 0.23 0.23 0.21 0.20 0.20 0.23 0.26 0.28 0.28 0.27 0.27
0.40 0.37 0.28 0.27 0.29 0.32 0.42 0.57 0.58 0.64 0.82 0.74 0.74 0.77 0.80 0.94 0.90 0.82 0.67 0.60 0.59 0.58 0.48 0.38 0.26 0.20 0.20 0.19 0.15 0.14 0.15 0.16 0.16 0.16 0.17 0.19 0.23 0.27 0.29 0.28 0.28 0.30 0.31 0.31
0.64 0.61 0.64 0.66 0.74 0.79 0.78 0.83 0.66 0.74 0.93 0.79 0.62 0.71 0.71 0.79 0.69 0.58 0.43 0.45 0.56 0.41 0.31 0.25 0.20 0.17 0.13 0.12 0.10 0.11 0.14 0.17 0.21 0.25 0.27 0.28 0.26 0.23 0.24 0.28 0.33 0.33 0.31 0.26
0.71 0.64 0.71 0.73 0.62 0.75 0.81 0.73 0.55 0.57 0.58 0.55 0.54 0.53 0.43 0.47 0.41 0.34 0.31 0.27 0.31 0.23 0.16 0.14 0.11 0.07 0.07 0.08 0.09 0.10 0.11 0.15 0.17 0.18 0.19 0.20 0.26 0.31 0.32 0.30 0.29 0.25 0.23 0.21
0.65 0.59 0.57 0.54 0.47 0.51 0.52 0.46 0.47 0.38 0.39 0.41 0.37 0.33 0.26 0.26 0.23 0.17 0.22 0.22 0.15 0.13 0.10 0.09 0.07 0.05 0.07 0.10 0.12 0.11 0.14 0.16 0.18 0.23 0.27 0.28 0.26 0.25 0.22 0.20 0.18 0.17 0.16 0.16
0.53 0.49 0.47 0.44 0.32 0.22 0.29 0.40 0.28 0.24 0.19 0.17 0.16 0.14 0.10 0.09 0.14 0.12 0.10 0.09 0.07 0.07 0.07 0.07 0.07 0.06 0.07 0.14 0.15 0.17 0.21 0.24 0.23 0.20 0.19 0.17 0.18 0.16 0.15 0.13 0.12 0.11 0.12 0.11
0.42 0.41 0.37 0.29 0.24 0.30 0.23 0.18 0.10 0.09 0.08 0.09 0.10 0.08 0.05 0.06 0.12 0.11 0.07 0.07 0.06 0.09 0.12 0.07 0.07 0.07 0.15 0.20 0.19 0.18 0.19 0.19 0.15 0.16 0.18 0.18 0.16 0.16 0.15 0.13 0.12 0.12 0.12 0.11
0.32 0.31 0.29 0.24 0.23 0.19 0.16 0.11 0.12 0.13 0.09 0.09 0.13 0.16 0.15 0.10 0.08 0.08 0.08 0.08 0.07 0.09 0.14 0.16 0.14 0.13 0.17 0.18 0.18 0.16 0.18 0.16 0.15 0.18 0.18 0.17 0.16 0.16 0.14 0.13 0.12 0.13 0.14 0.15
0.27 0.22 0.17 0.15 0.16 0.15 0.14 0.15 0.15 0.16 0.15 0.15 0.16 0.17 0.16 0.14 0.12 0.10 0.09 0.11 0.12 0.13 0.16 0.18 0.18 0.20 0.20 0.20 0.20 0.20 0.19 0.18 0.16 0.16 0.16 0.17 0.16 0.15 0.15 0.15 0.14 0.13 0.13 0.14